Location: Potawatomi Wildlife Park
(41.2308°N, 86.1050°W)
Time: 12:37:54
(UTC-04:00)

Daily predictions for brighter satellites

Satellite Brightness Start Highest point End
(mag) Time Altitude Azimuth Time Altitude Azimuth Time Altitude Azimuth
Cosmos 1470 Rocket 3.7 21:38:09 10° S 21:42:33 60° E 21:46:59 10° NNE
Cosmos 2278 Rocket 4.2 21:38:24 10° WSW 21:43:31 35° WNW 21:48:41 10° N
Cosmos 2298 Rocket 4.3 21:40:54 10° S 21:45:55 45° ESE 21:50:57 10° NNE
Cosmos 2150 Rocket 4.5 21:41:49 10° S 21:46:51 41° ESE 21:51:50 10° NNE
Cosmos 2034 Rocket 4.0 21:43:49 10° N 21:50:05 87° E 21:56:14 10° S
Meteor 2-3 Rocket 4.2 21:46:10 10° SSE 21:51:30 41° E 21:56:48 10° NNE
Shenzhou-11 Module 2.3 21:48:52 10° WNW 21:51:56 66° N 21:55:00 10° E
Hubble Space Telescope 2.9 21:50:25 10° SSW 21:52:13 12° S 21:53:59 10° SSE
Cosmos 1937 Rocket 3.7 21:47:34 10° S 21:52:28 47° ESE 21:57:23 10° NNE
Meteor 1-29 3.5 21:49:35 10° NNE 21:52:54 39° E 21:56:12 10° S
COSMOS 2455 3.8 21:49:21 10° SSE 21:54:08 25° ESE 21:58:57 10° NE
SJ-11-01 4.3 21:52:04 10° SSE 21:56:48 90° WSW 22:01:34 10° NNW
Cosmos 1315 Rocket 2.9 21:56:48 10° S 22:00:48 84° W 22:04:53 10° N
ATLAS 3B R/B 3.9 21:58:21 10° SW 22:05:35 52° NW 22:12:32 10° NNE
ATLAS 5 CENTAUR R/B 4.2 22:03:00 10° N 22:07:07 19° NE 22:11:28 10° E
Cosmos 2242 Rocket 4.5 22:06:23 10° NNW 22:10:45 51° W 22:15:04 10° SSW
SPOT 5 3.9 22:11:55 13° SE 22:16:07 37° ENE 22:20:58 10° N
Timation 2 Rocket 4.2 22:11:44 10° NNW 22:18:02 79° WSW 22:24:31 10° SSE
Cosmos 2082 Rocket 3.3 22:12:49 10° NW 22:18:07 42° WSW 22:23:24 10° S
Resurs 01 Rocket 4.2 22:17:58 10° SW 22:21:06 19° W 22:24:16 10° NW
Terra 3.9 22:18:53 10° E 22:21:20 14° ENE 22:23:46 10° NNE
MetOp-B 4.3 22:18:02 13° SSE 22:22:42 58° ENE 22:27:57 10° N
ARGOS 3.5 22:21:03 15° SE 22:25:21 51° ENE 22:30:32 10° N
SAR-Lupe-4 3.7 22:22:09 11° S 22:25:31 75° W 22:29:06 10° NNW
YAOGAN 6 3.5 22:23:22 10° S 22:26:58 49° W 22:30:36 10° NNW
SPOT 1/Viking Rocket 4.4 22:24:11 16° ESE 22:27:36 34° ENE 22:32:16 10° N
ERS-1 Rocket 2.9 22:23:11 12° SSE 22:27:51 80° ENE 22:32:54 10° N
Aureole 3 3.3 22:31:06 24° SE 22:32:27 36° E 22:35:14 10° NNE
Tiangong 2 1.1 22:31:14 10° WNW 22:34:28 78° NNE 22:36:22 22° E
Cosmos 1833 Rocket 4.2 22:30:51 10° NW 22:35:46 31° WSW 22:40:37 10° SSW
OAO 2 Rocket 4.2 22:32:42 10° WSW 22:37:08 32° SSW 22:39:28 21° SSE
Cosmos 1825 3.0 22:37:42 25° SE 22:39:01 32° E 22:42:25 10° NNE
GPS 2-04 Rocket1 3.4 22:36:30 10° SW 22:39:34 27° S 22:39:58 26° SSE
Aureole 1 4.1 22:37:38 18° S 22:39:38 58° ESE 22:42:49 10° NNE
Cosmos 2142 Rocket 4.4 22:33:36 10° N 22:39:46 75° E 22:44:45 16° SSE
NOSS 3-2 (A) 3.8 22:33:56 10° SW 22:39:53 68° NW 22:46:29 10° NNE
SL-08 RB Rocket 4.0 22:37:01 21° SE 22:39:56 53° ENE 22:44:30 10° N
Cosmos 2279 Rocket 4.3 22:34:42 10° N 22:40:48 51° ENE 22:44:52 21° SE
Cosmos 2084 4.3 22:37:46 10° NNW 22:41:17 33° NE 22:43:14 21° E
Lacrosse 5 rocket 2.8 22:44:20 17° E 22:44:20 17° E 22:45:38 10° ENE
Milstar 3 4.1 22:36:35 10° SW 22:44:34 25° S 22:47:21 20° SE
Cosmos 1892 3.8 22:42:08 10° SSW 22:45:51 45° W 22:49:35 10° N
H-2A R/B 4.0 22:46:34 12° E 22:47:48 14° ENE 22:49:52 10° NNE
USA 215 3.4 22:45:39 20° SSE 22:50:21 65° SW 22:56:54 10° NW
Helios 1B rocket 4.3 22:47:08 10° N 22:50:46 31° WNW 22:54:23 10° SW
TIMED 4.4 22:47:30 13° S 22:51:22 65° ESE 22:55:43 10° NNE
Cosmos 1346 Rocket 3.7 22:48:41 10° NNW 22:52:29 45° W 22:55:38 14° SSW
Cosmos 2263 4.4 22:48:38 13° S 22:53:39 49° ESE 22:59:11 10° NE
Cosmos 1408 2.7 22:53:50 33° SSE 22:55:13 56° E 22:58:53 10° NNE
NOSS 3-2 (C) 3.8 22:51:57 10° SW 22:57:56 68° NW 23:04:32 10° NNE
Cosmos 1125 Rocket 3.6 22:57:27 21° S 23:00:49 53° ESE 23:05:55 10° NNE
Meteor 1-10 Rocket 4.3 22:55:36 10° N 23:01:34 76° E 23:05:07 25° SSE
Lacrosse 4 Rocket 3.1 23:00:19 10° N 23:04:01 24° NE 23:05:48 19° E
Meteor 1-27 Rocket 4.2 22:59:01 10° N 23:04:38 48° ENE 23:07:07 30° SE
Cosmos 1943 Rocket 2.3 23:05:38 23° S 23:08:52 52° ESE 23:14:16 10° NNE
H-2A R/B 2.1 23:05:54 28° SSE 23:08:55 83° ENE 23:14:19 10° NNW
Cosmos 372 Rocket 4.1 23:06:47 29° SSE 23:09:10 52° ESE 23:14:08 10° NNE
Cosmos 2369 Rocket 2.3 23:09:30 10° SSW 23:15:09 80° WNW 23:20:52 10° NNE
Cosmos 1340 2.6 23:13:23 10° N 23:17:10 66° E 23:17:46 55° SE
Cosmos 1606 2.7 23:13:23 10° NNW 23:17:10 74° W 23:18:16 43° S
DNEPR-1 R/B 3.8 23:17:24 17° SSW 23:21:21 62° ESE 23:25:51 10° NE
Okean 1-7 3.8 23:19:25 10° NNW 23:23:40 48° W 23:25:53 25° SSW
Cosmos 1782 3.3 23:19:47 10° NNW 23:23:43 55° W 23:25:10 34° SSW
Meteor 2-6 Rocket 4.4 23:19:46 10° NNW 23:25:41 75° W 23:28:54 29° S
CENTAUR R/B 2.4 23:20:35 10° SSW 23:26:30 72° ESE 23:33:15 10° NE
Shenzhou-11 Module 3.2 23:25:21 10° W 23:27:28 35° WSW 23:27:28 35° WSW
Cosmos 1733 Rocket 2.9 23:34:59 60° SSE 23:35:36 71° E 23:39:55 10° NNE
IGS 5A 3.4 23:36:37 62° ESE 23:37:07 70° ENE 23:41:16 10° N
Cosmos 1862 3.3 23:38:51 56° SSW 23:39:35 76° W 23:43:35 10° N
COSMOS 2455 3.6 23:33:51 10° SW 23:39:42 53° NW 23:45:35 10° NNE
Landsat 7 4.0 23:41:59 44° SSW 23:43:23 67° WSW 23:48:08 10° NNW
DMSP B5D2-2 4.2 23:39:37 10° N 23:44:50 75° WNW 23:47:26 30° SSW
Cosmos 1437 4.4 23:43:53 10° N 23:45:47 26° NE 23:45:47 26° NE
GEOS 3 Rocket 3.9 23:51:25 43° SSW 23:52:39 54° WSW 23:57:46 10° NW
ATLAS 5 CENTAUR R/B 2.4 23:46:41 10° NNW 23:52:42 77° NE 23:54:47 45° SE
